DW4080 Weather Reports


time (UTC)temp
C
wind
direction
speed
KPH
gust
KPH
rain 1hr
cm
rain 24hr
cm
rain mn
cm
humidity
%
barometer
mb
20260503184531 16 360 6.4 24.1 0.00 0.00 0.00 46 1010.1
20260503183031 16 360 12.9 27.4 0.00 0.00 0.00 41 1010.5
20260503181538 16 5 8.0 24.1 0.00 0.00 0.00 45 1010.7
20260503180042 16 360 11.3 19.3 0.00 0.00 0.00 45 1010.7
20260503174559 15 360 6.4 19.3 0.00 0.00 0.00 46 1011.1
20260503173055 15 360 11.3 24.1 0.00 0.00 0.00 45 1011.5
20260503171604 15 360 11.3 20.9 0.00 0.00 0.00 46 1011.6
20260503170109 14 360 11.3 24.1 0.00 0.00 0.00 45 1011.8
20260503081532 3 360 0.0 0.0 0.00 0.00 0.00 62 1014.1
20260503071524 3 360 0.0 0.0 0.00 0.00 0.00 64 1014.4
20260503054559 3 360 0.0 1.6 0.00 0.00 0.00 62 1015.1
20260503053058 3 360 0.0 0.0 0.00 0.00 0.00 59 1015.2
20260503051558 3 360 0.0 0.0 0.00 0.00 0.00 61 1015.2
20260503050056 3 360 0.0 0.0 0.00 0.00 0.00 59 1015.4
20260503044555 3 360 0.0 0.0 0.00 0.00 0.00 58 1015.4
20260503043054 3 360 0.0 0.0 0.00 0.00 0.00 59 1015.5
20260503041553 3 360 0.0 0.0 0.00 0.00 0.00 60 1015.5
20260503040050 3 360 0.0 0.0 0.00 0.00 0.00 60 1015.5
20260503034603 3 360 0.0 0.0 0.00 0.00 0.00 60 1015.6
20260503033055 3 360 0.0 0.0 0.00 0.00 0.00 63 1015.7
20260503031553 3 360 0.0 0.0 0.00 0.00 0.00 62 1015.8
20260503030047 4 360 0.0 0.0 0.00 0.00 0.00 60 1015.8
20260503024549 4 360 0.0 0.0 0.00 0.00 0.00 54 1015.9
20260503023044 5 360 0.0 0.0 0.00 0.00 0.00 56 1016.0
20260503021544 5 360 0.0 0.0 0.00 0.00 0.00 55 1015.9
20260503020044 5 360 0.0 0.0 0.00 0.00 0.00 58 1015.8
20260503014545 6 360 0.0 0.0 0.00 0.00 0.00 49 1015.9
20260503013042 6 360 0.0 0.0 0.00 0.00 0.00 47 1015.7
20260503011545 6 360 0.0 0.0 0.00 0.00 0.00 46 1015.6
20260503010007 7 360 0.0 4.8 0.00 0.00 0.00 46 1015.5
20260503004529 7 360 0.0 4.8 0.00 0.00 0.00 45 1015.5
20260503003049 8 360 1.6 4.8 0.00 0.00 0.00 43 1015.4
20260503001610 8 360 4.8 8.0 0.00 0.00 0.00 41 1015.4
20260503000113 8 360 3.2 9.7 0.00 0.00 0.00 42 1015.2
20260502234518 9 360 0.0 4.8 0.00 0.00 0.00 44 1015.2
20260502233033 9 360 0.0 6.4 0.00 0.00 0.00 45 1015.3
20260502231539 9 360 1.6 6.4 0.00 0.00 0.00 45 1015.4
20260502230057 9 5 0.0 6.4 0.00 0.00 0.00 45 1015.4
20260502224611 9 360 0.0 6.4 0.00 0.00 0.00 46 1015.5
20260502223015 9 360 3.2 8.0 0.00 0.00 0.00 44 1015.4
20260502221521 8 360 4.8 12.9 0.00 0.00 0.00 43 1015.5
20260502220036 9 5 1.6 6.4 0.00 0.00 0.00 47 1015.4
20260502214558 9 360 1.6 8.0 0.00 0.00 0.00 46 1015.5
20260502213100 9 80 3.2 6.4 0.00 0.00 0.00 47 1015.6
20260502211504 8 360 4.8 12.9 0.00 0.00 0.00 45 1015.7
20260502210013 10 360 3.2 9.7 0.00 0.00 0.00 45 1015.7
20260502204519 8 360 4.8 9.7 0.00 0.00 0.00 48 1016.0
20260502203032 8 360 4.8 9.7 0.00 0.00 0.00 46 1016.1
20260502201551 8 360 4.8 12.9 0.00 0.00 0.00 47 1016.2
20260502200107 8 360 4.8 12.9 0.00 0.00 0.00 45 1016.3
20260502194503 8 360 4.8 19.3 0.00 0.00 0.00 46 1016.5
20260502193021 8 30 6.4 17.7 0.00 0.00 0.00 44 1016.6
20260502191535 8 11 6.4 16.1 0.00 0.00 0.00 44 1016.7
20260502190056 9 360 3.2 9.7 0.00 0.00 0.00 44 1016.8